Terminal Aerodrome Forecast
Issued by NWS

Home | Current Version | Previous Version | Graphics & Text | Print | Product List | Glossary On
Versions: 1 2 3 4 5 6 7 8 9 10 11 12 13 14 15 16 17 18 19 20 21 22 23 24 25 26
000
FTUS43 KABR 150500
TAFPIR
TAF
KPIR 150531Z 1506/1606 12010KT P6SM SKC
     FM151500 15019G27KT P6SM BKN250
     FM160000 11017KT P6SM OVC100=

USA.gov is the U.S. government's official web portal to all federal, state and local government web resources and services.